Retour au catalogue

NOAA 12 DEB

ActifSSO
NORAD 37831·DEBRIS·🇺🇸 United States

Lancé May 14, 1991 depuis Vandenberg Space Force Base

Loading…

Prochains Passages (prochaines 24 heures)

TLE

FraisSource: Space-Track

Époque: Sep 14, 2026, 03:44 UTC

1 37831U 91032D   26257.15581464  .00015505  00000-0  15878-2 0  9990
2 37831  98.1214 321.2169 0001574  82.5848 305.7411 14.90587378788854

Suivez NOAA 12 DEB en temps réel avec AllMySat

Download on the App Store